SWA2680 KDEN-KOMA

Flight info

Callsign SWA2680
Flight time 1h 8m
Altitude 37000
Route EEONS8 WYNDM HCT GRI HOWRY3
Aircraft B737/M-SADE2E3GIJ4RWZ/LB1D1

Departure

Time 2026-05-05 04:30
Airport Denver International Airport (KDEN)

Arrival

Time 2026-05-05 05:39
Airport Eppley Airfield (KOMA)
Time Latitude Longitude Altitude Speed Heading
2026-05-05 04:07 39.86359 -104.67756 5365 ft 0 kts 180°
2026-05-05 04:19 39.86360 -104.67756 5365 ft 1 kts 180°
2026-05-05 04:20 39.86375 -104.67756 5362 ft 2 kts 180°
2026-05-05 04:20 39.86392 -104.67756 5364 ft 2 kts 180°
2026-05-05 04:20 39.86408 -104.67756 5363 ft 2 kts 180°
2026-05-05 04:20 39.86424 -104.67756 5364 ft 2 kts 180°
2026-05-05 04:21 39.86432 -104.67756 5364 ft 0 kts 180°
2026-05-05 04:23 39.86429 -104.67756 5365 ft 2 kts 185°
2026-05-05 04:24 39.86420 -104.67781 5363 ft 5 kts 269°
2026-05-05 04:24 39.86420 -104.67852 5365 ft 12 kts 270°
2026-05-05 04:24 39.86420 -104.67991 5365 ft 16 kts 270°
2026-05-05 04:25 39.86430 -104.68270 5365 ft 15 kts 270°
2026-05-05 04:25 39.86395 -104.68381 5363 ft 14 kts 201°
2026-05-05 04:25 39.86297 -104.68389 5362 ft 15 kts 181°
2026-05-05 04:25 39.86181 -104.68391 5364 ft 18 kts 181°
2026-05-05 04:26 39.86045 -104.68391 5364 ft 21 kts 180°
2026-05-05 04:26 39.85892 -104.68394 5363 ft 23 kts 180°
2026-05-05 04:26 39.85724 -104.68396 5363 ft 25 kts 180°
2026-05-05 04:26 39.85550 -104.68398 5364 ft 24 kts 180°
2026-05-05 04:27 39.85389 -104.68399 5363 ft 23 kts 180°
2026-05-05 04:27 39.85234 -104.68410 5364 ft 22 kts 206°
2026-05-05 04:27 39.85203 -104.68591 5365 ft 21 kts 268°
2026-05-05 04:27 39.85201 -104.68783 5365 ft 21 kts 269°
2026-05-05 04:28 39.85198 -104.68969 5365 ft 20 kts 268°
2026-05-05 04:28 39.85196 -104.69149 5365 ft 20 kts 271°
2026-05-05 04:28 39.85200 -104.69324 5365 ft 19 kts 271°
2026-05-05 04:28 39.85202 -104.69493 5363 ft 18 kts 270°
2026-05-05 04:29 39.85232 -104.69642 5365 ft 18 kts 328°
2026-05-05 04:29 39.85362 -104.69654 5365 ft 24 kts
2026-05-05 04:29 39.85704 -104.69652 5363 ft 83 kts
2026-05-05 04:29 39.86502 -104.69641 5365 ft 143 kts
2026-05-05 04:30 39.87605 -104.69627 5756 ft 164 kts 359°
2026-05-05 04:30 39.88705 -104.69600 6745 ft 159 kts 359°
2026-05-05 04:30 39.89824 -104.69582 7358 ft 170 kts 358°
2026-05-05 04:30 39.91117 -104.69381 7639 ft 206 kts 20°
2026-05-05 04:31 39.92370 -104.68240 7894 ft 238 kts 50°
2026-05-05 04:31 39.93239 -104.66269 8261 ft 262 kts 64°
2026-05-05 04:31 39.93963 -104.64069 8944 ft 270 kts 66°
2026-05-05 04:31 39.94670 -104.61792 9625 ft 271 kts 70°
2026-05-05 04:32 39.94983 -104.59376 9953 ft 273 kts 86°
2026-05-05 04:32 39.95059 -104.56848 9971 ft 282 kts 88°
2026-05-05 04:32 39.95110 -104.54310 9963 ft 279 kts 88°
2026-05-05 04:32 39.95163 -104.51797 9957 ft 276 kts 87°
2026-05-05 04:33 39.95224 -104.49298 9946 ft 275 kts 87°
2026-05-05 04:33 39.95293 -104.46754 9929 ft 294 kts 87°
2026-05-05 04:33 39.95368 -104.44033 9941 ft 302 kts 87°
2026-05-05 04:33 39.95445 -104.41287 9934 ft 304 kts 87°
2026-05-05 04:34 39.95557 -104.38528 9952 ft 309 kts 84°
2026-05-05 04:34 39.95759 -104.35620 10224 ft 334 kts 84°
2026-05-05 04:34 39.95992 -104.32546 10944 ft 345 kts 83°
2026-05-05 04:34 39.96225 -104.29430 11651 ft 347 kts 84°
2026-05-05 04:35 39.96454 -104.26291 11882 ft 350 kts 84°
2026-05-05 04:35 39.96681 -104.23100 11854 ft 353 kts 84°
2026-05-05 04:35 39.96902 -104.19936 11854 ft 351 kts 84°
2026-05-05 04:35 39.97122 -104.16767 11836 ft 351 kts 84°
2026-05-05 04:36 39.97367 -104.13627 11849 ft 357 kts 82°
2026-05-05 04:36 39.97715 -104.10404 12747 ft 358 kts 80°
2026-05-05 04:36 39.98086 -104.07178 13777 ft 362 kts 80°
2026-05-05 04:36 39.98462 -104.03903 14592 ft 369 kts 80°
2026-05-05 04:37 39.98837 -104.00555 15435 ft 377 kts 80°
2026-05-05 04:37 39.99210 -103.97143 16286 ft 383 kts 81°
2026-05-05 04:37 39.99586 -103.93669 17150 ft 390 kts 81°
2026-05-05 04:37 40.00012 -103.90145 17966 ft 396 kts 78°
2026-05-05 04:38 40.00570 -103.86597 18679 ft 402 kts 76°
2026-05-05 04:38 40.01176 -103.83014 19474 ft 406 kts 76°
2026-05-05 04:38 40.01766 -103.79441 20271 ft 409 kts 76°
2026-05-05 04:38 40.02351 -103.75791 21025 ft 413 kts 77°
2026-05-05 04:39 40.02951 -103.72103 21748 ft 418 kts 76°
2026-05-05 04:39 40.03564 -103.68373 22476 ft 422 kts 76°
2026-05-05 04:39 40.04184 -103.64608 23200 ft 427 kts 76°
2026-05-05 04:39 40.04811 -103.60795 23813 ft 431 kts 76°
2026-05-05 04:40 40.05442 -103.56948 24405 ft 435 kts 76°
2026-05-05 04:40 40.06077 -103.53064 24989 ft 439 kts 76°
2026-05-05 04:40 40.06715 -103.49147 25572 ft 443 kts 76°
2026-05-05 04:40 40.07358 -103.45187 26149 ft 447 kts 76°
2026-05-05 04:41 40.08004 -103.41194 26709 ft 451 kts 76°
2026-05-05 04:41 40.08647 -103.37215 27257 ft 455 kts 76°
2026-05-05 04:41 40.09300 -103.33157 27796 ft 459 kts 76°
2026-05-05 04:41 40.09959 -103.29060 28319 ft 462 kts 76°
2026-05-05 04:42 40.10622 -103.24923 28814 ft 466 kts 76°
2026-05-05 04:42 40.11288 -103.20762 29310 ft 470 kts 75°
2026-05-05 04:42 40.11960 -103.16552 29790 ft 473 kts 75°
2026-05-05 04:42 40.12633 -103.12326 30208 ft 477 kts 75°
2026-05-05 04:43 40.13081 -103.09507 30436 ft 480 kts 75°
2026-05-05 04:43 40.13982 -103.03818 30872 ft 486 kts 75°
2026-05-05 04:43 40.14669 -102.99470 31199 ft 490 kts 75°
2026-05-05 04:43 40.15136 -102.96512 31416 ft 492 kts 75°
2026-05-05 04:44 40.15819 -102.92169 31785 ft 495 kts 75°
2026-05-05 04:44 40.16510 -102.87759 32263 ft 494 kts 75°
2026-05-05 04:44 40.17198 -102.83354 32748 ft 494 kts 75°
2026-05-05 04:44 40.17888 -102.78926 33161 ft 496 kts 75°
2026-05-05 04:45 40.18577 -102.74501 33550 ft 497 kts 75°
2026-05-05 04:45 40.19266 -102.70064 33981 ft 497 kts 75°
2026-05-05 04:45 40.19952 -102.65630 34373 ft 497 kts 75°
2026-05-05 04:45 40.20630 -102.61241 34690 ft 499 kts 75°
2026-05-05 04:46 40.21317 -102.56781 34994 ft 500 kts 75°
2026-05-05 04:46 40.22003 -102.52313 35378 ft 500 kts 75°
2026-05-05 04:46 40.22686 -102.47853 35766 ft 500 kts 75°
2026-05-05 04:46 40.23367 -102.43391 36143 ft 499 kts 75°
2026-05-05 04:47 40.24047 -102.38928 36531 ft 498 kts 75°
2026-05-05 04:47 40.24722 -102.34484 36871 ft 499 kts 75°
2026-05-05 04:47 40.25405 -102.29986 36831 ft 508 kts 75°
2026-05-05 04:48 40.26791 -102.20820 36850 ft 516 kts 75°
2026-05-05 04:48 40.28167 -102.11630 36847 ft 513 kts 75°
2026-05-05 04:49 40.29532 -102.02467 36841 ft 511 kts 75°
2026-05-05 04:49 40.30883 -101.93350 36860 ft 508 kts 75°
2026-05-05 04:50 40.32214 -101.84328 36873 ft 506 kts 75°
2026-05-05 04:50 40.33541 -101.75283 36890 ft 504 kts 75°
2026-05-05 04:51 40.34856 -101.66262 36896 ft 502 kts 75°
2026-05-05 04:51 40.36158 -101.57283 36907 ft 500 kts 75°
2026-05-05 04:52 40.37452 -101.48317 36902 ft 499 kts 76°
2026-05-05 04:52 40.38728 -101.39422 36893 ft 498 kts 76°
2026-05-05 04:53 40.40011 -101.30488 36874 ft 498 kts 75°
2026-05-05 04:53 40.41287 -101.21563 36866 ft 497 kts 76°
2026-05-05 04:54 40.42553 -101.12645 36857 ft 497 kts 76°
2026-05-05 04:54 40.43813 -101.03722 36859 ft 497 kts 76°
2026-05-05 04:55 40.45057 -100.94865 36864 ft 496 kts 76°
2026-05-05 04:55 40.46621 -100.86066 36865 ft 493 kts 70°
2026-05-05 04:56 40.48528 -100.77429 36877 ft 492 kts 69°
2026-05-05 04:56 40.50454 -100.68779 36879 ft 492 kts 70°
2026-05-05 04:57 40.52327 -100.60130 36878 ft 492 kts 70°
2026-05-05 04:57 40.54167 -100.51472 36873 ft 491 kts 70°
2026-05-05 04:58 40.55984 -100.42867 36873 ft 491 kts 70°
2026-05-05 04:58 40.57807 -100.34201 36875 ft 490 kts 70°
2026-05-05 04:59 40.59621 -100.25555 36871 ft 490 kts 70°
2026-05-05 04:59 40.61427 -100.16914 36871 ft 489 kts 71°
2026-05-05 05:00 40.63211 -100.08342 36889 ft 488 kts 71°
2026-05-05 05:00 40.64999 -99.99696 36906 ft 488 kts 71°
2026-05-05 05:01 40.66779 -99.91080 36922 ft 486 kts 71°
2026-05-05 05:01 40.68549 -99.82483 36931 ft 486 kts 71°
2026-05-05 05:02 40.70309 -99.73887 36937 ft 485 kts 71°
2026-05-05 05:02 40.72050 -99.65348 36934 ft 485 kts 71°
2026-05-05 05:03 40.73799 -99.56738 36924 ft 486 kts 71°
2026-05-05 05:03 40.75545 -99.48103 36910 ft 487 kts 71°
2026-05-05 05:04 40.77287 -99.39448 36901 ft 488 kts 71°
2026-05-05 05:04 40.79019 -99.30809 36908 ft 490 kts 71°
2026-05-05 05:05 40.80761 -99.22085 36927 ft 492 kts 71°
2026-05-05 05:05 40.82502 -99.13325 36932 ft 493 kts 71°
2026-05-05 05:06 40.84240 -99.04542 36934 ft 494 kts 71°
2026-05-05 05:06 40.85973 -98.95741 36936 ft 495 kts 71°
2026-05-05 05:07 40.87689 -98.86992 36922 ft 495 kts 71°
2026-05-05 05:07 40.89413 -98.78167 36908 ft 495 kts 71°
2026-05-05 05:08 40.91130 -98.69336 36906 ft 495 kts 71°
2026-05-05 05:08 40.92839 -98.60509 36907 ft 495 kts 71°
2026-05-05 05:09 40.94528 -98.51743 36921 ft 494 kts 71°
2026-05-05 05:09 40.96222 -98.42914 36922 ft 494 kts 71°
2026-05-05 05:10 40.97899 -98.34141 36931 ft 494 kts 71°
2026-05-05 05:10 40.99886 -98.25479 36941 ft 490 kts 66°
2026-05-05 05:11 41.02219 -98.16983 36929 ft 490 kts 65°
2026-05-05 05:11 41.04565 -98.08486 36907 ft 490 kts 65°
2026-05-05 05:11 41.05719 -98.04231 36782 ft 492 kts 65°
2026-05-05 05:12 41.06876 -97.99930 36093 ft 497 kts 66°
2026-05-05 05:12 41.08025 -97.95619 35388 ft 495 kts 66°
2026-05-05 05:12 41.09153 -97.91363 34595 ft 496 kts 66°
2026-05-05 05:12 41.10299 -97.87035 33735 ft 497 kts 66°
2026-05-05 05:13 41.11446 -97.82695 32732 ft 499 kts 66°
2026-05-05 05:13 41.12592 -97.78350 31968 ft 495 kts 66°
2026-05-05 05:13 41.13719 -97.74067 31350 ft 489 kts 67°
2026-05-05 05:13 41.14836 -97.69820 30708 ft 484 kts 67°
2026-05-05 05:14 41.15921 -97.65686 30112 ft 478 kts 67°
2026-05-05 05:14 41.17011 -97.61534 29425 ft 473 kts 67°
2026-05-05 05:14 41.18086 -97.57433 28798 ft 469 kts 67°
2026-05-05 05:14 41.19160 -97.53330 28126 ft 470 kts 67°
2026-05-05 05:15 41.20234 -97.49227 27487 ft 469 kts 68°
2026-05-05 05:15 41.21304 -97.45130 26856 ft 469 kts 68°
2026-05-05 05:15 41.22371 -97.41030 26228 ft 467 kts 68°
2026-05-05 05:15 41.23427 -97.36964 25602 ft 464 kts 68°
2026-05-05 05:16 41.24461 -97.32976 24992 ft 460 kts 68°
2026-05-05 05:16 41.25502 -97.28958 24378 ft 457 kts 68°
2026-05-05 05:16 41.26532 -97.24973 23767 ft 454 kts 69°
2026-05-05 05:16 41.27557 -97.21003 23082 ft 451 kts 69°
2026-05-05 05:17 41.28570 -97.17072 22368 ft 448 kts 69°
2026-05-05 05:17 41.29572 -97.13176 21759 ft 443 kts 69°
2026-05-05 05:17 41.30551 -97.09365 21121 ft 439 kts 69°
2026-05-05 05:17 41.31534 -97.05530 20483 ft 435 kts 69°
2026-05-05 05:18 41.32507 -97.01732 19866 ft 432 kts 69°
2026-05-05 05:18 41.33473 -96.97958 19248 ft 429 kts 69°
2026-05-05 05:18 41.34429 -96.94217 18643 ft 426 kts 69°
2026-05-05 05:18 41.35373 -96.90491 18003 ft 424 kts 71°
2026-05-05 05:19 41.35983 -96.86658 17296 ft 423 kts 83°
2026-05-05 05:19 41.36074 -96.82759 16661 ft 419 kts 94°
2026-05-05 05:19 41.35674 -96.78941 15983 ft 415 kts 104°
2026-05-05 05:19 41.35021 -96.75217 15357 ft 411 kts 106°
2026-05-05 05:20 41.34351 -96.71588 14743 ft 407 kts 107°
2026-05-05 05:20 41.33677 -96.67942 14136 ft 403 kts 107°
2026-05-05 05:20 41.33021 -96.64335 13500 ft 399 kts 107°
2026-05-05 05:20 41.32380 -96.60760 12834 ft 395 kts 106°
2026-05-05 05:21 41.31751 -96.57214 12207 ft 390 kts 106°
2026-05-05 05:21 41.31133 -96.53719 11595 ft 385 kts 105°
2026-05-05 05:21 41.30525 -96.50270 10993 ft 381 kts 105°
2026-05-05 05:21 41.29923 -96.46861 10406 ft 376 kts 105°
2026-05-05 05:22 41.29334 -96.43526 10185 ft 362 kts 105°
2026-05-05 05:22 41.28769 -96.40335 10008 ft 347 kts 105°
2026-05-05 05:22 41.28225 -96.37270 9885 ft 333 kts 105°
2026-05-05 05:22 41.27708 -96.34357 9865 ft 316 kts 105°
2026-05-05 05:23 41.27218 -96.31608 9746 ft 305 kts 105°
2026-05-05 05:23 41.26728 -96.28873 9415 ft 303 kts 105°
2026-05-05 05:23 41.26238 -96.26139 9036 ft 303 kts 104°
2026-05-05 05:23 41.25749 -96.23412 8672 ft 303 kts 104°
2026-05-05 05:24 41.25262 -96.20696 8341 ft 301 kts 104°
2026-05-05 05:24 41.24777 -96.17986 7993 ft 300 kts 103°
2026-05-05 05:24 41.24293 -96.15291 7644 ft 299 kts 103°
2026-05-05 05:24 41.23817 -96.12645 7342 ft 297 kts 102°
2026-05-05 05:25 41.23337 -96.09976 6993 ft 296 kts 102°
2026-05-05 05:25 41.22857 -96.07305 6660 ft 295 kts 101°
2026-05-05 05:25 41.22380 -96.04661 6375 ft 293 kts 101°
2026-05-05 05:25 41.21908 -96.02050 6176 ft 286 kts 101°
2026-05-05 05:26 41.21456 -95.99563 6105 ft 275 kts 100°
2026-05-05 05:26 41.20993 -95.97137 6014 ft 267 kts 105°
2026-05-05 05:26 41.20323 -95.94872 5899 ft 260 kts 111°
2026-05-05 05:26 41.19593 -95.92688 5692 ft 257 kts 111°
2026-05-05 05:27 41.18880 -95.90519 5460 ft 254 kts 105°
2026-05-05 05:27 41.18605 -95.88308 5319 ft 237 kts 77°
2026-05-05 05:27 41.19996 -95.84983 5159 ft 191 kts 27°
2026-05-05 05:28 41.21122 -95.84161 4990 ft 180 kts 15°
2026-05-05 05:28 41.22292 -95.83671 4812 ft 172 kts
2026-05-05 05:28 41.23465 -95.83694 4615 ft 167 kts 347°
2026-05-05 05:28 41.24567 -95.84166 4363 ft 167 kts 335°
2026-05-05 05:29 41.25552 -95.84994 4142 ft 168 kts 326°
2026-05-05 05:29 41.26497 -95.85922 3907 ft 169 kts 328°
2026-05-05 05:29 41.27431 -95.86823 3702 ft 167 kts 329°
2026-05-05 05:29 41.28377 -95.87731 3458 ft 168 kts 329°
2026-05-05 05:30 41.29335 -95.88647 3183 ft 170 kts 329°
2026-05-05 05:30 41.30287 -95.89572 2975 ft 167 kts 329°
2026-05-05 05:30 41.31186 -95.90454 2906 ft 155 kts 330°
2026-05-05 05:30 41.32052 -95.91291 2530 ft 161 kts 330°
2026-05-05 05:31 41.32665 -95.91870 2496 ft 160 kts 329°
2026-05-05 05:31 41.33580 -95.92747 2489 ft 163 kts 328°
2026-05-05 05:31 41.34481 -95.93616 2355 ft 157 kts 328°
2026-05-05 05:31 41.35132 -95.94721 2257 ft 161 kts 288°
2026-05-05 05:32 41.34933 -95.96257 2276 ft 182 kts 260°
2026-05-05 05:32 41.34181 -95.97958 2724 ft 242 kts 230°
2026-05-05 05:32 41.32641 -95.99340 3456 ft 288 kts 207°
2026-05-05 05:32 41.30675 -95.99766 4946 ft 288 kts 178°
2026-05-05 05:33 41.28685 -95.99315 4982 ft 290 kts 167°
2026-05-05 05:33 41.26714 -95.98714 4992 ft 290 kts 170°
2026-05-05 05:33 41.24779 -95.98243 5006 ft 273 kts 172°
2026-05-05 05:33 41.22956 -95.97856 5007 ft 261 kts 169°
2026-05-05 05:34 41.21359 -95.96847 4983 ft 258 kts 139°
2026-05-05 05:34 41.20241 -95.94987 4617 ft 256 kts 110°
2026-05-05 05:34 41.19532 -95.92864 4266 ft 247 kts 105°
2026-05-05 05:34 41.18897 -95.90780 3913 ft 237 kts 99°
2026-05-05 05:35 41.18667 -95.88726 3601 ft 211 kts 77°
2026-05-05 05:35 41.18984 -95.86995 3336 ft 179 kts 54°
2026-05-05 05:35 41.19613 -95.85706 3137 ft 161 kts 42°
2026-05-05 05:35 41.20422 -95.84706 2804 ft 155 kts 29°
2026-05-05 05:36 41.21355 -95.84034 2658 ft 152 kts 15°
2026-05-05 05:36 41.22394 -95.83717 2519 ft 155 kts
2026-05-05 05:36 41.23426 -95.83739 2345 ft 139 kts 356°
2026-05-05 05:36 41.24266 -95.84067 2178 ft 126 kts 322°
2026-05-05 05:37 41.24872 -95.84871 2005 ft 123 kts 342°
2026-05-05 05:37 41.25672 -95.85257 1785 ft 125 kts 328°
2026-05-05 05:37 41.26371 -95.85904 1644 ft 120 kts 329°
2026-05-05 05:37 41.27079 -95.86563 1518 ft 126 kts 327°
2026-05-05 05:38 41.27811 -95.87232 1336 ft 126 kts 327°
2026-05-05 05:38 41.28518 -95.87898 1117 ft 122 kts 324°
2026-05-05 05:38 41.29196 -95.88533 1025 ft 122 kts 324°
2026-05-05 05:38 41.29878 -95.89182 987 ft 109 kts 324°
2026-05-05 05:39 41.30323 -95.89602 983 ft 48 kts 324°
2026-05-05 05:39 41.30444 -95.89718 990 ft 10 kts 324°
2026-05-05 05:39 41.30498 -95.89770 987 ft 10 kts 324°
2026-05-05 05:39 41.30545 -95.89830 984 ft 9 kts 298°
2026-05-05 05:40 41.30534 -95.89909 985 ft 9 kts 236°
2026-05-05 05:40 41.30498 -95.89976 988 ft 9 kts 234°
2026-05-05 05:40 41.30450 -95.90012 988 ft 9 kts 160°
2026-05-05 05:40 41.30372 -95.89942 991 ft 19 kts 144°
2026-05-05 05:41 41.30269 -95.89842 986 ft 18 kts 144°
2026-05-05 05:41 41.30174 -95.89737 988 ft 17 kts 145°
2026-05-05 05:41 41.30094 -95.89692 986 ft 8 kts 196°
2026-05-05 05:41 41.30091 -95.89723 988 ft 3 kts 296°
2026-05-05 05:42 41.30097 -95.89753 984 ft 3 kts 277°
2026-05-05 05:42 41.30099 -95.89776 989 ft 1 kts 274°
2026-05-05 05:42 41.30099 -95.89780 988 ft 0 kts 274°